"Pseudo-MPEC" for A11G7zN

Created 2026 Aug 30 0:35:03 UT using Find_Orb

Click here for an explanation of pseudo-MPECs

 
 Astrometry: 
     A11G7zN*0C2026 08 28.76445916 26 19.339-51 21 55.22   ~8TI5 14.21oVNEOCPM22
     A11G7zN 0C2026 08 28.76810916 26 55.085-51 22 42.64   ~8TI5 14.24oVNEOCPM22
     A11G7zN 0C2026 08 28.77452516 27 57.931-51 24 03.74   ~8TI5 14.19oVNEOCPM22
     A11G7zN 0C2026 08 28.78596016 29 50.054-51 26 22.31   ~8TI5 14.23oVNEOCPM22
     A11G7zN  B2026 08 29.98106519 20 44.597-46 54 28.30   ~8TNo 13.6 VZNEOCPY05
     A11G7zN  B2026 08 29.98128519 20 45.876-46 54 21.82   ~8TNo 13.6 VZNEOCPY05
     A11G7zN  B2026 08 29.98147019 20 47.006-46 54 16.24   ~8TNo 13.6 VZNEOCPY05
     A11G7zN  B2026 08 29.98174819 20 48.620-46 54 08.04   ~8TNo 13.6 VZNEOCPY05
     A11G7zN  B2026 08 29.98191019 20 49.577-46 54 03.52   ~8TNo 13.6 VZNEOCPY05
     A11G7zN  B2026 08 29.99378519 21 59.564-46 48 11.24   ~8U0K 13.6 VZNEOCPY05
     A11G7zN  B2026 08 29.99397019 22 00.665-46 48 05.53   ~8U0K 13.7 VZNEOCPY05
     A11G7zN  B2026 08 29.99413219 22 01.640-46 48 00.57   ~8U0K 13.6 VZNEOCPY05
     A11G7zN  B2026 08 29.99437519 22 03.087-46 47 53.40   ~8U0K 13.7 VZNEOCPY05
     A11G7zN  B2026 08 29.99451419 22 03.875-46 47 49.20   ~8U0K 13.6 VZNEOCPY05

Station data:
(M22) ATLAS South Africa, Sutherland  (S32.380156 E20.810590)  South Africa.
   Observers L. Denneau, R. Siverd, J. Tonry, H. Weiland. Measurers L.
   Denneau, N. Erasmus, A. Fitzsimmons, J. Robinson, R. Siverd, J. Tonry, H.
   Weiland. 0.5-m f/2.0 Schmidt + CCD.
(Y05) SONEAR Wykrota-CEAMIG, Serra da Piedade  (S19.824251 W43.690000)
   Brazil.  Observer C. Jacques. 0.45-m f/2.9 reflector + CMO.

Orbital elements:  A11G7zN
   Perihelion 2026 Jul 12.578436 +/- 0.316 TT = 13:52:56.9 (JD 2461234.078436)
Epoch 2026 Aug 29.0 TT = JDT 2461281.5   Earth MOID: 0.0057   Ve: 0.0078
M  16.632055503 +/- 0.7             Ma: 0.0264                   AutoNEOCP
n   0.350727690 +/- 0.0137          Peri.  235.459996 +/- 0.6
a   1.991388580 +/- 0.0517          Node    20.053922 +/- 0.58
e   0.65158445 +/- 0.0105           Incl.    0.910507 +/- 0.018
P   2.81018                H 19.49  G  0.15   U  9.9
q 0.693830746 +/- 0.00284    Q 3.288946414 +/- 0.106      (J2000 ecliptic)
From 14 observations 2026 Aug. 28-29 (29.5 hr); mean residual 0".16
Residuals in arcseconds: 
260828 M22  .25-  .11+    260829 Y05  .14-  .11-    260829 Y05  .13-  .07+    
260828 M22  .05+  .04-    260829 Y05  .21+  .00     260829 Y05  .12+  .21+    
260828 M22  .20+  .01+    260829 Y05  .12-  .02-    260829 Y05  .33+  .15+    
260828 M22  .01+  .07-    260829 Y05  .14-  .29-    260829 Y05  .05+  .21+    
260829 Y05  .10+  .09-    260829 Y05  .29-  .14-    

Ephemerides (geocentric):
Date (UTC) HH   RA             Dec           delta  r     elong  mag " sig PA
---- --------  ------------   ------------  ------ ------ -----  --- --------
2026 08 30 01  19 26 44.568   -46 22 00.23  .02816 1.0265 125.8 13.7 2.09 176
2026 08 30 02  19 30 44.128   -46 01 06.32  .02840 1.0269 126.6 13.7 2.07 174
2026 08 30 03  19 34 36.592   -45 40 03.96  .02865 1.0273 127.3 13.7 2.06 173
2026 08 30 04  19 38 22.145   -45 18 55.29  .02891 1.0278 128.0 13.7 2.04 171
2026 08 30 05  19 42 00.974   -44 57 42.32  .02917 1.0282 128.7 13.7 2.03 169
2026 08 30 06  19 45 33.271   -44 36 26.88  .02943 1.0286 129.4 13.7 2.02 167
2026 08 30 07  19 48 59.227   -44 15 10.71  .02970 1.0291 130.1 13.7 2.01 165
2026 08 30 08  19 52 19.034   -43 53 55.38  .02998 1.0295 130.7 13.7 2.00 164
2026 08 30 09  19 55 32.884   -43 32 42.35  .03026 1.0299 131.4 13.8 1.99 162
2026 08 30 10  19 58 40.964   -43 11 32.96  .03054 1.0303 132.0 13.8 1.98 160
2026 08 30 11  20 01 43.462   -42 50 28.42  .03083 1.0308 132.6 13.8 1.97 159
2026 08 30 12  20 04 40.562   -42 29 29.87  .03112 1.0312 133.2 13.8 1.96 157
2026 08 30 13  20 07 32.444   -42 08 38.30  .03141 1.0316 133.8 13.8 1.95 156
2026 08 30 14  20 10 19.284   -41 47 54.65  .03171 1.0321 134.4 13.8 1.95 154
2026 08 30 15  20 13 01.253   -41 27 19.74  .03201 1.0325 135.0 13.8 1.94 153
2026 08 30 16  20 15 38.520   -41 06 54.31  .03232 1.0329 135.6 13.8 1.94 151
2026 08 30 17  20 18 11.246   -40 46 39.03  .03263 1.0334 136.1 13.8 1.93 150
2026 08 30 18  20 20 39.591   -40 26 34.50  .03294 1.0338 136.6 13.8 1.93 149
2026 08 30 19  20 23 03.707   -40 06 41.23  .03325 1.0342 137.2 13.8 1.92 147
2026 08 30 20  20 25 23.741   -39 46 59.70  .03357 1.0346 137.7 13.8 1.92 146
2026 08 30 21  20 27 39.839   -39 27 30.30  .03390 1.0351 138.2 13.8 1.92 145
2026 08 30 22  20 29 52.137   -39 08 13.38  .03422 1.0355 138.7 13.8 1.91 144
2026 08 30 23  20 32 00.770   -38 49 09.24  .03455 1.0359 139.2 13.8 1.91 143
2026 08 31 00  20 34 05.866   -38 30 18.14  .03488 1.0364 139.7 13.8 1.91 142
2026 08 31 01  20 36 07.550   -38 11 40.28  .03521 1.0368 140.1 13.8 1.91 141
2026 08 31 02  20 38 05.941   -37 53 15.84  .03555 1.0372 140.6 13.9 1.90 139
2026 08 31 03  20 40 01.154   -37 35 04.94  .03589 1.0377 141.1 13.9 1.90 138
2026 08 31 04  20 41 53.300   -37 17 07.70  .03623 1.0381 141.5 13.9 1.90 138
2026 08 31 05  20 43 42.487   -36 59 24.18  .03657 1.0385 141.9 13.9 1.90 137
2026 08 31 06  20 45 28.816   -36 41 54.42  .03692 1.0389 142.4 13.9 1.90 136
2026 08 31 07  20 47 12.386   -36 24 38.46  .03727 1.0394 142.8 13.9 1.90 135
2026 08 31 08  20 48 53.292   -36 07 36.28  .03762 1.0398 143.2 13.9 1.90 134
2026 08 31 09  20 50 31.626   -35 50 47.86  .03797 1.0402 143.6 13.9 1.90 133
2026 08 31 10  20 52 07.474   -35 34 13.16  .03833 1.0407 144.0 13.9 1.90 132
2026 08 31 11  20 53 40.922   -35 17 52.12  .03869 1.0411 144.4 13.9 1.90 132
2026 08 31 12  20 55 12.049   -35 01 44.66  .03904 1.0415 144.7 14.0 1.90 131
2026 08 31 13  20 56 40.934   -34 45 50.71  .03941 1.0420 145.1 14.0 1.90 130
2026 08 31 14  20 58 07.652   -34 30 10.15  .03977 1.0424 145.5 14.0 1.90 129
2026 08 31 15  20 59 32.273   -34 14 42.87  .04013 1.0428 145.8 14.0 1.90 129
2026 08 31 16  21 00 54.869   -33 59 28.77  .04050 1.0433 146.2 14.0 1.90 128
2026 08 31 17  21 02 15.503   -33 44 27.70  .04087 1.0437 146.5 14.0 1.90 127
2026 08 31 18  21 03 34.241   -33 29 39.53  .04124 1.0441 146.8 14.0 1.90 127
2026 08 31 19  21 04 51.144   -33 15 04.12  .04161 1.0446 147.2 14.0 1.90 126
2026 08 31 20  21 06 06.270   -33 00 41.32  .04199 1.0450 147.5 14.0 1.90 126
2026 08 31 21  21 07 19.677   -32 46 30.98  .04236 1.0454 147.8 14.1 1.90 125
2026 08 31 22  21 08 31.417   -32 32 32.94  .04274 1.0458 148.1 14.1 1.90 125
2026 08 31 23  21 09 41.545   -32 18 47.04  .04312 1.0463 148.4 14.1 1.90 124
2026 09 01 00  21 10 50.111   -32 05 13.11  .04350 1.0467 148.7 14.1 1.90 124